TimeCST,TemperatureF,Dew PointF,Humidity,Sea Level PressureIn,VisibilityMPH,Wind Direction,Wind SpeedMPH,Gust SpeedMPH,PrecipitationIn,Events,Conditions,WindDirDegrees,DateUTC
12:08 AM,39.2,37.4,93,29.90,5.0,Calm,Calm,-,0.04,Rain,Rain,0,2013-12-14 06:08:00
12:24 AM,39.2,37.4,93,29.88,5.0,East,5.8,-,0.05,Rain,Rain,100,2013-12-14 06:24:00
12:53 AM,39.9,37.9,93,29.86,9.0,East,4.6,-,0.06,Rain,Light Rain,90,2013-12-14 06:53:00
1:15 AM,39.2,39.2,100,29.86,10.0,Calm,Calm,-,0.00,,Overcast,0,2013-12-14 07:15:00
1:53 AM,39.9,37.9,93,29.85,10.0,Calm,Calm,-,0.00,,Overcast,0,2013-12-14 07:53:00
2:38 AM,39.2,39.2,100,29.84,8.0,Calm,Calm,-,N/A,,Overcast,0,2013-12-14 08:38:00
2:50 AM,39.2,39.2,100,29.84,7.0,Calm,Calm,-,N/A,,Overcast,0,2013-12-14 08:50:00
2:53 AM,39.9,39.0,97,29.84,7.0,Calm,Calm,-,N/A,,Overcast,0,2013-12-14 08:53:00
3:53 AM,39.9,37.9,93,29.83,8.0,Calm,Calm,-,N/A,,Overcast,0,2013-12-14 09:53:00
4:00 AM,39.2,39.2,100,29.83,8.0,Calm,Calm,-,N/A,,Overcast,0,2013-12-14 10:00:00
4:30 AM,39.2,37.4,93,29.84,8.0,NW,3.5,-,N/A,,Overcast,320,2013-12-14 10:30:00
4:53 AM,39.9,37.9,93,29.85,8.0,NNW,4.6,-,N/A,,Overcast,330,2013-12-14 10:53:00
5:32 AM,39.2,39.2,100,29.86,5.0,NW,3.5,-,N/A,,Overcast,310,2013-12-14 11:32:00
5:53 AM,39.9,39.0,97,29.87,5.0,NW,5.8,-,N/A,,Overcast,310,2013-12-14 11:53:00
6:49 AM,39.2,37.4,93,29.88,2.5,NNW,6.9,-,N/A,,Overcast,340,2013-12-14 12:49:00
6:53 AM,39.0,37.9,96,29.88,2.5,NNW,6.9,-,N/A,,Overcast,340,2013-12-14 12:53:00
7:07 AM,39.2,37.4,93,29.89,3.0,NNW,6.9,-,N/A,,Overcast,330,2013-12-14 13:07:00
7:53 AM,39.0,37.9,96,29.91,4.0,NW,8.1,-,N/A,,Overcast,320,2013-12-14 13:53:00
8:34 AM,39.2,39.2,100,29.93,2.5,NNW,3.5,-,N/A,,Overcast,330,2013-12-14 14:34:00
8:53 AM,39.9,39.0,97,29.94,3.0,NNW,4.6,-,N/A,,Overcast,340,2013-12-14 14:53:00
9:02 AM,39.2,39.2,100,29.95,2.5,NNW,3.5,-,N/A,,Overcast,330,2013-12-14 15:02:00
9:10 AM,39.2,39.2,100,29.95,3.0,NW,3.5,-,N/A,,Overcast,320,2013-12-14 15:10:00
9:53 AM,41.0,39.9,96,29.98,7.0,NW,4.6,-,N/A,,Overcast,310,2013-12-14 15:53:00
10:06 AM,42.8,39.2,87,29.98,10.0,NNW,5.8,-,N/A,,Overcast,330,2013-12-14 16:06:00
10:50 AM,44.6,39.2,81,29.98,10.0,NW,6.9,-,N/A,,Overcast,310,2013-12-14 16:50:00
10:53 AM,44.1,39.9,85,29.99,10.0,WNW,9.2,-,N/A,,Mostly Cloudy,290,2013-12-14 16:53:00
11:50 AM,46.4,39.2,76,29.96,10.0,NNW,6.9,-,N/A,,Scattered Clouds,330,2013-12-14 17:50:00
11:53 AM,46.9,39.9,77,29.96,10.0,NNW,10.4,-,N/A,,Partly Cloudy,330,2013-12-14 17:53:00
12:34 PM,46.4,39.2,76,29.96,10.0,North,10.4,-,N/A,,Mostly Cloudy,350,2013-12-14 18:34:00
12:53 PM,46.9,39.0,74,29.96,10.0,NNW,12.7,-,N/A,,Overcast,340,2013-12-14 18:53:00
1:23 PM,46.4,39.2,76,29.97,10.0,North,12.7,-,N/A,,Overcast,350,2013-12-14 19:23:00
1:33 PM,44.6,37.4,76,29.97,10.0,North,12.7,25.3,N/A,,Overcast,350,2013-12-14 19:33:00
1:53 PM,45.0,37.9,76,29.98,10.0,NNW,13.8,-,N/A,,Overcast,340,2013-12-14 19:53:00
2:53 PM,45.0,37.0,74,30.01,10.0,NW,12.7,-,N/A,,Overcast,320,2013-12-14 20:53:00
3:53 PM,43.0,36.0,76,30.05,10.0,NW,15.0,20.7,N/A,,Overcast,320,2013-12-14 21:53:00
4:22 PM,42.8,35.6,76,30.06,10.0,NW,13.8,-,N/A,,Overcast,320,2013-12-14 22:22:00
4:53 PM,43.0,35.1,74,30.08,10.0,NNW,12.7,-,N/A,,Overcast,330,2013-12-14 22:53:00
5:53 PM,42.1,33.1,70,30.10,-9999.0,NNW,10.4,-,N/A,,Overcast,330,2013-12-14 23:53:00
6:53 PM,42.1,34.0,73,30.12,-9999.0,NNW,9.2,-,N/A,,Overcast,340,2013-12-15 00:53:00
7:53 PM,39.9,32.0,73,30.15,10.0,NNW,11.5,20.7,N/A,,Overcast,340,2013-12-15 01:53:00
8:02 PM,39.2,30.2,70,30.15,10.0,NNW,13.8,21.9,N/A,,Overcast,340,2013-12-15 02:02:00
8:53 PM,39.0,30.0,70,30.17,10.0,NNW,15.0,21.9,N/A,,Overcast,340,2013-12-15 02:53:00
9:53 PM,37.9,30.0,73,30.19,10.0,NW,8.1,-,N/A,,Overcast,320,2013-12-15 03:53:00
10:49 PM,37.4,30.2,75,30.20,10.0,NW,8.1,-,N/A,,Overcast,310,2013-12-15 04:49:00
10:53 PM,37.9,30.9,76,30.21,10.0,WNW,11.5,-,N/A,,Overcast,300,2013-12-15 04:53:00
11:53 PM,37.0,30.0,76,30.22,9.0,NW,8.1,-,N/A,,Overcast,310,2013-12-15 05:53:00